Location: Unspecified
(0.0000°N, 0.0000°E)
Time: 04:10:42
(UTC+00:00)

deb Delta 104 - Pass Details

Date: 09 March 2026
Orbit: 1403 x 1485 km, 102.0° (Epoch: 15 April)

Event Time Altitude Azimuth Distance (km) Brightness Sun altitude
Rises 19:06:29 0° 179° (S) 4,486 ? -14.0°
Reaches altitude 10° 19:09:24 10° 186° (S) 3,516 ? -14.7°
Maximum altitude 19:16:56 42° 253° (WSW) 1,944 ? -16.6°
Drops below altitude 10° 19:24:36 10° 321° (NW) 3,561 ? -18.5°
Sets 19:27:37 0° 328° (NNW) 4,549 ? -19.2°
